Find Juntian-1 04A

NORAD ID: 68198 Int'l Des: NNA 2026-052 Owner: JUNT Country: CN operational
LEOCIRCULARRETROGRADESSO

Live-Position

3D-Globus wird geladen...

Über Juntian-1 04A

Beschreibung wird geladen...

Nächste Überflüge

Passes for default location (London). Set your location on the main map for personalized predictions.

Höhenverlauf

Loading altitude history...

Zweizeiliger Elementsatz

1 68198U 26052A 26121.20434162 .00008113 00000-0 49642-3 0 9992
2 68198 97.5346 196.7137 0015252 109.1463 251.1419 15.10384223 6953
Epoch: 1. Mai 2026 • Age: 10 hours

Aktueller Status

Höhe 538.6 km
Geschwindigkeit 7.61 km/s
Subsatellitenpunkt 82.00°N, 45.83°E
Startdatum 16. März 2026
Alter 0.1 years
Typ other

Technische Details

Klassifizierung Payload
Masse 100.00 kg
Trockenmasse 100.00 kg
Gesamtmasse 100.00 kg
Länge 0.50 m
Durchmesser 1.20 m
Spannweite 2.50 m
Form Box+ 4 pan
Hersteller JUNT
Bus-Typ JT1
Phasenstatus In Orbit
Besitzer/Staat JUNT/CN

Most Searched